Branson, MO

11:26 AM CDT on May 25, 2018 (GMT -0500)
Branson

Weather History for KBBG - October, 2012

Change the Weather History Date:

Saturday, October 20, 2012

  Actual Average (KHRO) Record (KHRO)
Temperature  
Mean Temperature 58 °F -  
Max Temperature 75 °F 68 °F 87 °F (1927)
Min Temperature 41 °F 45 °F 27 °F (1989)
Degree Days  
Heating Degree Days 7    
Growing Degree Days 8 (Base 50)    
Moisture  
Dew Point 40 °F    
Average Humidity 61    
Maximum Humidity 87    
Minimum Humidity 29    
Precipitation  
Precipitation 0.00 in - - ()
Sea Level Pressure  
Sea Level Pressure 29.87 in    
Wind  
Wind Speed 4 mph (South)    
Max Wind Speed 10 mph    
Max Gust Speed -    
Visibility 10 miles    
Events      
Averages and records for this station are not official NWS values.
T = Trace of Precipitation, MM = Missing Value Source: NWS Daily Summary

Daily Weather History Graph

Daily Weather History Graph

Search for Another Location

Airport or City:

Astronomy

Oct. 20, 2012 Rise Set
Actual Time 7:25 AM CDT 6:29 PM CDT
Civil Twilight 6:58 AM CDT 6:55 PM CDT
Nautical Twilight 6:28 AM CDT 7:25 PM CDT
Astronomical Twilight 5:58 AM CDT 7:55 PM CDT
Moon 12:56 PM CDT (10/20) 11:20 PM CDT (10/20)
Length of Visible Light 11h 56m
Length of Day
11h 04m
Waxing Crescent, 34% of the Moon is Illuminated
Oct 20
Waxing Crescent
Oct 21
First Quarter
Oct 29
Full
Nov 6
Last Quarter
Nov 13
New

Hourly Weather History & Observations

Time (CDT) Temp. Windchill Dew Point Humidity Pressure Visibility Wind Dir Wind Speed Gust Speed Precip Events Conditions
12:15 AM 46.4 °F 44.3 °F 39.2 °F 76% 29.88 in 10.0 mi SSW 4.6 mph - N/A   Clear
12:35 AM 46.4 °F 44.3 °F 39.2 °F 76% 29.88 in 10.0 mi SSW 4.6 mph - N/A   Clear
12:55 AM 46.4 °F 45.2 °F 39.2 °F 76% 29.88 in 10.0 mi South 3.5 mph - N/A   Clear
1:15 AM 46.4 °F 44.3 °F 39.2 °F 76% 29.88 in 10.0 mi South 4.6 mph - N/A   Clear
1:35 AM 46.4 °F - 39.2 °F 76% 29.88 in 10.0 mi Calm Calm - N/A   Clear
1:55 AM 46.4 °F - 39.2 °F 76% 29.88 in 10.0 mi Calm Calm - N/A   Clear
2:15 AM 44.6 °F - 39.2 °F 81% 29.88 in 8.0 mi Calm Calm - N/A   Clear
2:35 AM 44.6 °F - 39.2 °F 81% 29.88 in 10.0 mi Calm Calm - N/A   Clear
2:55 AM 42.8 °F - 39.2 °F 87% 29.87 in 10.0 mi Calm Calm - N/A   Clear
3:15 AM 42.8 °F - 39.2 °F 87% 29.87 in 10.0 mi Calm Calm - N/A   Clear
3:35 AM 44.6 °F 43.1 °F 37.4 °F 76% 29.87 in 10.0 mi SSW 3.5 mph - N/A   Clear
3:55 AM 44.6 °F 43.1 °F 37.4 °F 76% 29.86 in 10.0 mi SW 3.5 mph - N/A   Clear
4:15 AM 44.6 °F 43.1 °F 37.4 °F 76% 29.87 in 10.0 mi SW 3.5 mph - N/A   Clear
4:35 AM 44.6 °F 43.1 °F 37.4 °F 76% 29.87 in 10.0 mi SSW 3.5 mph - N/A   Clear
4:55 AM 44.6 °F 43.1 °F 37.4 °F 76% 29.87 in 10.0 mi SSW 3.5 mph - N/A   Clear
5:15 AM 44.6 °F 43.1 °F 37.4 °F 76% 29.88 in 10.0 mi SW 3.5 mph - N/A   Clear
5:35 AM 44.6 °F 43.1 °F 37.4 °F 76% 29.88 in 10.0 mi SW 3.5 mph - N/A   Clear
5:55 AM 41.0 °F - 37.4 °F 87% 29.88 in 10.0 mi Calm Calm - N/A   Clear
6:15 AM 44.6 °F - 35.6 °F 71% 29.89 in 10.0 mi Calm Calm - N/A   Clear
6:35 AM 44.6 °F 43.1 °F 35.6 °F 71% 29.89 in 10.0 mi SW 3.5 mph - N/A   Clear
6:50 AM 44.6 °F - 37.4 °F 76% 29.90 in 10.0 mi Calm Calm - N/A   Clear
7:50 AM 46.4 °F - 35.6 °F 66% 29.90 in 10.0 mi Calm Calm - N/A   Partly Cloudy
8:45 AM 53.6 °F - 35.6 °F 51% 29.91 in 10.0 mi South 4.6 mph - N/A   Partly Cloudy
9:45 AM 59.0 °F - 35.6 °F 42% 29.92 in 10.0 mi Calm Calm - N/A   Clear
10:50 AM 64.4 °F - 41.0 °F 42% 29.91 in 10.0 mi Calm Calm - N/A   Clear
11:45 AM 66.2 °F - 41.0 °F 40% 29.90 in 10.0 mi NNE 4.6 mph - N/A   Clear
12:05 PM 66.2 °F - 41.0 °F 40% 29.90 in 10.0 mi ESE 6.9 mph - N/A   Clear
12:57 PM 69.8 °F - 41.0 °F 35% 29.88 in 10.0 mi SSE 6.9 mph - N/A   Clear
1:50 PM 71.6 °F - 41.0 °F 33% 29.85 in 10.0 mi ESE 6.9 mph - N/A   Clear
2:45 PM 75.2 °F - 41.0 °F 29% 29.83 in 10.0 mi SE 6.9 mph - N/A   Clear
3:45 PM 75.2 °F - 41.0 °F 29% 29.82 in 10.0 mi SE 10.4 mph - N/A   Clear
4:56 PM 73.4 °F - 44.6 °F 36% 29.81 in 10.0 mi ESE 8.1 mph - N/A   Partly Cloudy
5:57 PM 69.8 °F - 44.6 °F 40% 29.81 in 10.0 mi ESE 10.4 mph - N/A   Scattered Clouds
6:58 PM 64.4 °F - 46.4 °F 52% 29.83 in 10.0 mi ESE 9.2 mph - N/A   Clear
7:53 PM 64.4 °F - 44.6 °F 49% 29.83 in 10.0 mi SSE 8.1 mph - N/A   Clear
8:55 PM 64.4 °F - 44.6 °F 49% 29.85 in 10.0 mi SSE 9.2 mph - N/A   Clear
9:15 PM 62.6 °F - 44.6 °F 52% 29.85 in 10.0 mi SSE 9.2 mph - N/A   Clear
9:35 PM 62.6 °F - 44.6 °F 52% 29.86 in 10.0 mi SSE 8.1 mph - N/A   Clear
9:55 PM 62.6 °F - 44.6 °F 52% 29.86 in 10.0 mi SSE 6.9 mph - N/A   Clear
10:15 PM 62.6 °F - 44.6 °F 52% 29.86 in 10.0 mi SSE 6.9 mph - N/A   Clear
10:35 PM 62.6 °F - 44.6 °F 52% 29.87 in 10.0 mi SSE 6.9 mph - N/A   Clear
10:55 PM 62.6 °F - 44.6 °F 52% 29.87 in 10.0 mi SSE 6.9 mph - N/A   Clear
11:15 PM 62.6 °F - 44.6 °F 52% 29.87 in 10.0 mi SSE 8.1 mph - N/A   Partly Cloudy
11:35 PM 62.6 °F - 44.6 °F 52% 29.87 in 10.0 mi SSE 5.8 mph - N/A   Partly Cloudy
11:55 PM 60.8 °F - 44.6 °F 55% 29.86 in 10.0 mi SSE 5.8 mph - N/A   Partly Cloudy